AirNav   Air Wisconsin pilot careers
 
 438 users online  

CA84 Torrey Pines Gliderport
San Diego, California, USA

GOING TO SAN DIEGO?


FAA INFORMATION EFFECTIVE 16 AUGUST 2018

Location

FAA Identifier: CA84
Lat/Long: 32-53-23.0000N / 117-14-49.0000W
32-53.383333N / 117-14.816667W
32.8897222 / -117.2469444
(estimated)
Elevation: 372 ft. / 113 m (estimated)
Variation: 13E (1985)
From city: 11 miles NW of SAN DIEGO, CA
Time zone: UTC -7 (UTC -8 during Standard Time)
Zip code: 92037

Gliderport Operations

Gliderport use: Private use. Permission required prior to landing
Activation date: 11/1961
Control tower: no
ARTCC: LOS ANGELES CENTER
FSS: SAN DIEGO FLIGHT SERVICE STATION
Attendance: UNATNDD
Wind indicator: no
Segmented circle: no

Gliderport Communications

WX ASOS at MYF (7 nm SE): 126.9 (858-576-4337)
WX ASOS at SAN (10 nm S): PHONE 619-296-8934
WX AWOS-3P at SEE (14 nm E): 125.45 (619-449-1228)
WX ASOS at CRQ (14 nm N): PHONE 760-930-0864
WX ASOS at RNM (19 nm NE): 132.025 (760-789-0736)

Nearby radio navigation aids

VOR radial/distance  VOR name  Freq  Var
MZBr335/6.5MISSION BAY VORTAC117.8015E
PGYr307/21.5POGGI VORTAC109.8014E
OCNr143/22.7OCEANSIDE VORTAC115.3015E
TIJr311/25.7TIJUANA VOR/DME116.5014E
JLIr231/36.5JULIAN VORTAC114.0015E

Gliderport Services

Airframe service: NONE
Powerplant service: NONE

Runway Information

Runway 9/27

Dimensions: 1500 x 30 ft. / 457 x 9 m
Surface: asphalt
RUNWAY 9  RUNWAY 27
Traffic pattern: leftleft
Obstructions: nonetrees, 100 ft. from runway

Gliderport Ownership and Management from official FAA records

Ownership: Publicly-owned
Owner: CITY OF SAN DIEGO
Manager: JIM FROST
4740 HARBINSON AVE
LA MESA, CA 91941
Phone 619-461-9614
WORK PHONE 619-535-9505 EXT 1585

Additional Remarks

GLIDER PORT IS LEASED FM CITY TO THE ASSOCD GLIDER CLUB OF SOUTHERN CALIF FOR STUDENT TRAINING & RIDGE SOARING.
ALL ACFT ARE TRAILERED GLIDERS.
ROLLING RWY .6 PERCENT GRADIENT.
EXTENSIVE HANG GLIDER OPERATIONS ON WEEKENDS AND WEEKDAYS.

Instrument Procedures

There are no published instrument procedures at CA84.

Some nearby airports with instrument procedures:

KNKX - Miramar MCAS (Joe Foss Field) Airport (5 nm E)
KMYF - Montgomery-Gibbs Executive Airport (7 nm SE)
KSAN - San Diego International Airport (10 nm S)
KNZY - North Island Naval Air Station (Halsey Field) (12 nm S)
KSEE - Gillespie Field Airport (14 nm E)
KCRQ - Mc Clellan-Palomar Airport (14 nm N)
KRNM - Ramona Airport (19 nm NE)
 
Loc | Ops | Rwys | IFR | FBO | Links
Com | Nav | Svcs | Stats | Notes


 
Area around CA84 (Torrey Pines Gliderport)
 
Road maps at: MapQuest Bing Google
 
Aerial photo
WARNING: Photo may not be current or correct
Aerial photo of CA84 (Torrey Pines Gliderport)
Photo by Doug Fronius
Photo taken 13-Mar-2004
from a 1942 Schweizer TG-2 sailplane.

Do you have a better or more recent aerial photo of Torrey Pines Gliderport that you would like to share? If so, please send us your photo.

 
Sectional chart

 
Airport distance calculator
Flying to Torrey Pines Gliderport? Find the distance to fly.

From to CA84

Sunrise and sunset
Times for 21-Aug-2018
 Local
(UTC-7)
 Zulu
(UTC)
Morning civil twilight05:5212:52
Sunrise06:1713:17
Sunset19:2702:27
Evening civil twilight19:5302:53

Current date and time
Zulu (UTC)  22-Aug-2018 06:03:15
Local (UTC-7)  21-Aug-2018 23:03:15
 
METAR
KNKX 
6nm E 
220455Z 25004KT 9SM FEW014 23/18 A3000 RMK AO2 SLP150 T02280178
KMYF 
7nm SE 
220553Z AUTO 22003KT 8SM OVC015 22/18 A3000 RMK AO2 SLP156 T02220183 10261 20222 51017
KSAN 
10nm S 
220551Z VRB05KT 10SM BKN017 23/18 A3000 RMK AO2 SLP160 T02330183 10261 20233 51016
KNZY 
11nm S 
220552Z 00000KT 10SM BKN016 22/18 A2999 RMK AO2 SLP153 T02220183 10244 20222 51016
KCRQ 
15nm N 
220553Z AUTO 24004KT 9SM OVC015 22/19 A2999 RMK AO2 SLP151 T02220189 10244 20222 51016
KSEE 
15nm E 
220555Z AUTO 00000KT 10SM 22/19 A2999 RMK AO2
KRNM 
19nm NE 
220553Z AUTO 27004KT 8SM CLR 19/16 A3003 RMK AO2 SLP152 T01890161 10300 20183 51017
TAF
KNKX 
6nm E 
2205/2303 VRB06KT 9999 FEW020 FEW250 QNH2998INS BECMG 2205/2207 VRB06KT 9999 OVC012 QNH2995INS BECMG 2216/2218 27007KT 9999 FEW020 FEW250 QNH2993INS FM230130 VRB06KT 9999 FEW020 QNH2993INS T22/2213Z T28/2221Z AMD 0510
KSAN 
10nm S 
220520Z 2206/2312 30006KT P6SM OVC016 FM221900 25008KT P6SM SCT018 FM230400 28004KT P6SM OVC016
KNZY 
11nm S 
2123/2223 26009KT 9999 FEW020 FEW060 SCT150 QNH2987INS BECMG 2203/2205 VRB06KT 9999 BKN015 BKN250 QNH2989INS FM221900 29011KT 9999 FEW020 FEW060 SCT250 QNH2993INS T21/2213Z T25/2221Z FS30022
KCRQ 
15nm N 
220520Z 2206/2306 21004KT P6SM OVC013 FM221900 25007KT P6SM FEW014 FM230400 VRB04KT P6SM OVC013
NOTAMs
Click for the latest NOTAMs
NOTAMs are issued by the DoD/FAA and will open in a separate window not controlled by AirNav.

 

 
 

Would you like to see your business listed on this page?

 If your business provides an interesting product or service to pilots, flight crews, aircraft, or users of the Torrey Pines Gliderport, you should consider listing it here.  To start the listing process, click on the button below
 
Add a business
 

Other Pages about Torrey Pines Gliderport

www.agcsc.org/torrey_pines_info.html
 
Update a link
 
Copyright © AirNav, LLC. All rights reserved. Privacy Policy  Contact